GFSCGP_925_temp_072.txt.gz
Temp
21 22 21 23 24 25 26 25 25 27 26 25 26 26 28 30 27 27 26 26 25 24 23 20 18 16 15 14 13 13 13 13 12 12 12 12 13 12 13 14 14 15 14 15
21 20 23 24 24 23 24 24 25 26 25 24 26 26 28 28 28 28 29 27 26 25 23 21 18 17 16 14 14 13 12 13 12 12 13 13 12 13 13 13 14 14 13 14
21 23 22 23 22 22 23 23 24 25 26 25 25 26 27 28 29 28 27 27 27 26 23 21 19 17 17 14 14 14 12 12 12 13 13 13 12 12 12 12 13 13 13 14
21 23 22 21 22 23 23 25 23 24 23 24 25 25 28 27 28 29 28 27 27 26 24 22 20 18 17 16 14 14 13 13 12 12 12 13 13 12 13 12 12 13 13 13
21 21 21 21 22 23 23 25 23 23 24 24 24 24 27 27 26 28 29 29 28 26 25 23 21 20 18 17 14 13 13 14 12 12 13 13 14 13 12 12 13 13 13 12
20 21 21 22 23 23 23 23 23 23 23 21 23 24 26 28 28 28 29 30 29 27 26 24 22 20 19 17 15 13 14 14 14 13 12 12 12 13 12 11 11 11 12 12
18 19 21 22 22 23 23 23 22 21 21 21 25 24 25 27 28 28 28 29 29 28 26 25 23 21 19 18 16 15 16 16 14 14 14 13 13 13 13 12 12 11 11 12
16 17 19 21 22 22 22 23 23 21 22 24 23 23 25 27 28 27 27 28 28 28 26 25 24 22 20 18 16 15 16 16 16 15 15 14 15 14 14 13 14 13 13 13
18 19 21 21 22 23 22 22 24 22 22 21 25 25 26 27 27 28 28 28 29 29 27 25 25 22 20 19 17 15 17 17 16 15 15 15 15 15 15 15 15 14 14 14
19 19 21 22 21 22 23 24 20 21 20 21 24 24 25 26 26 28 28 28 29 29 27 26 25 23 21 19 18 16 17 17 16 15 15 15 15 15 15 15 15 15 15 15
20 18 18 21 21 21 22 21 22 23 22 22 22 24 26 26 26 27 28 28 28 28 27 26 25 23 21 20 18 17 17 17 16 15 16 15 15 15 14 15 15 15 15 15
18 18 19 20 21 22 23 22 22 21 22 22 23 23 26 26 26 24 26 28 27 27 28 27 25 23 22 20 19 18 17 17 16 15 15 15 15 15 15 14 14 15 15 15
17 17 18 19 20 21 21 21 21 21 21 21 20 22 26 25 25 24 25 27 28 28 28 27 25 24 23 21 20 19 18 17 17 16 15 15 15 15 14 14 14 15 15 15
15 17 17 18 19 19 18 19 19 20 20 21 22 22 24 24 25 25 25 26 27 28 28 27 26 25 24 22 21 20 19 18 17 16 16 15 15 15 14 15 14 14 15 15
16 17 17 17 18 18 18 18 19 19 20 19 21 21 23 24 24 24 25 24 24 26 27 27 27 27 26 24 22 21 20 18 17 17 16 16 15 15 15 14 14 14 14 14
15 16 16 17 17 18 18 19 19 19 20 21 21 21 24 24 24 24 24 24 24 24 25 27 27 26 26 25 23 22 20 19 18 17 17 17 16 15 15 15 15 14 14 14
13 15 15 15 16 17 16 18 19 20 21 21 20 22 22 22 22 22 22 22 23 24 25 25 26 26 26 25 23 23 21 20 18 18 17 17 17 16 16 15 15 15 15 15
13 14 14 15 14 14 19 19 19 19 20 22 21 21 20 20 20 21 21 19 19 20 21 23 24 25 25 24 23 23 23 21 19 18 18 18 17 17 16 16 15 15 15 15
14 14 13 14 15 17 18 19 19 19 20 19 20 20 20 20 20 22 21 20 19 19 19 20 21 22 22 22 23 22 21 22 20 19 19 18 18 17 16 16 16 15 14 13
13 14 13 13 14 14 18 18 18 19 18 19 18 19 19 19 19 20 20 19 19 20 19 19 19 19 20 21 20 21 21 21 21 20 20 19 18 17 17 16 15 13 13 12
10 11 12 13 14 16 18 19 18 17 16 18 18 18 18 18 19 19 19 19 19 19 19 17 17 17 17 16 17 18 20 20 20 20 19 18 17 17 15 12 12 11 10 9
11 11 11 13 12 12 18 17 16 16 17 17 18 18 17 18 18 19 18 18 19 18 18 16 15 12 11 12 15 18 18 13 13 12 11 11 11 11 11 11 8 7 7 5
13 15 15 15 16 17 17 17 17 15 15 16 15 16 16 17 18 18 18 17 17 16 15 14 11 8 7 7 11 12 9 9 9 9 8 8 8 7 7 6 5 4 3 1
15 16 15 15 17 17 18 17 15 14 14 14 14 14 14 13 16 16 15 14 14 13 11 9 9 6 4 4 4 6 6 7 6 5 5 4 4 4 3 3 3 1 0 -1
16 16 15 15 16 17 17 15 13 12 13 12 12 11 11 10 12 11 12 9 8 7 6 6 5 4 3 2 1 2 3 5 4 3 2 1 1 -0 -1 -1 -0 -0 -0 -0
15 15 14 14 14 12 13 13 11 11 11 10 9 9 9 7 8 8 7 4 5 3 1 1 0 1 1 0 0 1 2 2 1 1 0 -1 -1 -2 -2 -3 -4 -2 -1 -1

GFSCGP_925_temp_075.txt.gz
Temp
23 22 23 24 25 26 27 28 28 30 30 29 28 29 30 31 31 30 30 30 29 28 28 25 23 22 20 19 17 16 13 13 13 13 13 13 13 12 12 13 14 14 16 16
19 21 24 26 26 26 26 26 27 29 29 27 28 29 30 31 30 31 31 31 30 29 28 26 23 21 20 19 17 15 13 13 13 13 13 13 13 13 13 13 14 14 14 15
18 21 24 25 25 25 26 25 26 27 29 28 27 27 28 30 31 31 31 31 31 30 28 27 24 22 20 19 17 16 14 13 13 13 13 13 13 13 13 13 13 14 14 15
16 21 23 23 24 25 24 26 26 26 26 25 29 26 29 31 31 31 30 30 30 30 30 28 25 23 21 20 18 16 14 13 13 13 13 13 13 13 13 13 12 13 14 14
16 18 22 23 23 25 24 26 26 26 25 26 26 26 27 30 30 30 31 31 31 30 30 28 26 24 22 20 18 18 15 15 13 13 13 13 13 13 13 12 13 12 13 14
20 21 21 23 24 23 24 25 25 26 25 24 26 26 27 29 30 30 31 31 31 31 30 29 27 24 23 21 19 18 15 15 15 14 15 14 15 14 13 12 12 12 12 13
17 18 21 23 22 23 24 24 22 22 23 23 27 26 27 29 30 30 30 31 31 31 30 29 27 26 24 22 19 18 17 17 15 14 14 14 16 16 14 13 12 12 12 12
18 16 19 22 22 22 23 24 23 22 23 25 28 25 27 30 30 31 30 30 31 30 30 29 28 26 24 22 20 18 18 19 17 14 14 14 15 15 16 15 15 14 12 12
19 19 22 21 22 21 21 22 24 23 23 23 25 27 28 29 29 29 30 30 30 31 31 29 29 27 25 23 21 19 20 20 19 17 16 15 15 15 15 15 14 14 14 14
20 19 22 21 21 22 21 23 22 23 20 20 24 26 26 27 27 29 30 30 30 31 31 30 29 28 25 24 22 20 20 20 20 19 18 17 16 16 16 15 15 15 14 14
20 20 20 21 18 21 21 21 22 23 23 22 22 25 28 28 28 28 29 29 30 29 29 29 29 28 26 24 23 21 19 20 20 19 18 18 17 17 17 16 16 16 15 15
21 19 19 20 22 22 23 22 22 21 21 23 23 24 27 28 27 26 26 27 29 29 30 29 29 28 27 25 23 22 20 20 21 20 18 18 18 17 17 17 17 16 16 16
17 19 19 18 20 22 22 23 23 23 23 20 17 22 28 27 27 26 26 27 27 28 29 30 29 28 27 25 24 23 21 20 21 20 18 18 18 17 17 17 17 17 16 16
16 18 19 19 19 21 21 22 22 22 21 21 22 23 25 25 26 26 26 26 26 26 27 29 30 29 28 25 24 23 22 21 20 20 19 18 18 17 17 17 16 16 16 16
17 15 17 19 18 19 20 21 22 22 22 21 22 23 24 25 25 26 26 26 26 26 26 27 28 29 29 27 25 24 23 22 21 20 19 19 18 18 17 17 17 17 16 16
17 16 17 16 19 19 18 20 20 21 22 22 22 23 25 26 25 25 25 25 24 24 25 26 27 27 28 28 27 25 24 23 22 21 20 19 19 18 18 17 17 17 16 16
15 16 17 16 19 18 17 19 20 21 21 22 21 23 24 24 24 23 23 23 22 22 23 23 23 24 26 27 27 27 25 24 22 21 20 20 19 19 18 17 17 17 16 16
15 16 17 16 16 15 20 21 21 21 22 23 23 23 22 22 23 23 24 22 21 21 21 22 22 23 23 24 24 25 25 25 23 22 21 20 20 19 19 18 18 17 17 16
15 15 15 15 16 18 20 21 20 20 21 22 22 22 22 22 22 23 23 22 21 21 21 21 21 20 20 22 23 23 24 25 25 23 21 21 20 20 19 19 18 18 17 16
15 15 15 15 14 15 19 20 21 21 20 21 21 20 20 20 20 22 22 21 21 22 21 20 19 19 18 17 18 20 22 23 24 24 22 21 21 20 20 19 18 17 17 16
13 12 13 14 14 17 20 21 20 18 17 18 19 19 19 19 20 20 21 21 21 21 20 18 17 13 11 10 12 16 19 21 22 22 23 22 21 20 19 19 18 17 13 12
13 12 12 13 12 14 20 20 18 17 18 18 18 18 17 18 19 20 21 21 20 19 18 15 13 10 7 5 7 12 15 13 15 15 18 19 19 18 19 17 12 9 10 7
14 15 15 16 16 19 19 18 17 17 17 17 17 17 17 16 17 18 19 19 17 16 15 13 10 6 4 3 3 4 5 6 8 11 9 8 8 8 8 8 8 6 4 2
17 14 14 12 17 14 18 19 18 16 16 16 15 15 15 14 15 16 16 16 14 13 11 9 7 4 2 1 1 1 2 4 4 4 3 3 3 3 3 3 2 2 2 0
17 17 17 17 18 19 19 17 15 14 15 14 14 13 13 12 13 13 14 11 11 9 6 4 3 1 0 0 -1 -0 0 2 1 0 0 -1 -1 -1 -1 -1 -0 -0 -0 -0
17 16 15 15 14 15 16 14 13 13 12 12 11 11 10 10 9 10 10 7 6 5 3 2 0 -0 -1 -1 -2 -2 -1 -0 1 -1 -1 -2 -2 -3 -3 -3 -4 -3 -3 -2

GFSCGP_925_temp_078.txt.gz
Temp
22 20 21 22 24 24 25 25 26 29 30 30 29 29 30 31 31 30 30 30 30 28 29 27 25 24 22 20 17 15 14 13 13 13 13 13 12 12 13 13 12 14 14 15
22 21 22 23 24 24 25 24 25 27 30 29 29 29 30 30 30 31 31 30 30 29 29 27 25 23 22 20 17 15 14 13 13 13 13 13 13 12 13 12 13 13 15 15
20 21 22 21 22 23 24 24 25 26 28 29 29 27 28 29 30 31 31 31 31 30 29 27 25 23 21 20 18 16 15 14 13 13 13 13 13 12 12 12 13 14 15 15
21 21 20 19 17 18 21 24 25 26 26 25 28 26 28 30 30 30 31 30 30 30 30 28 25 23 21 20 18 17 15 14 13 13 13 13 13 13 13 13 13 14 15 15
20 19 18 17 16 18 19 23 23 22 25 25 26 25 27 29 29 30 31 31 30 30 30 28 26 24 22 21 18 17 15 14 14 13 13 13 13 13 13 13 13 12 14 15
20 21 19 17 17 20 19 22 21 22 24 23 25 25 26 28 29 31 32 31 31 30 30 29 27 25 23 21 19 17 16 15 14 14 14 14 14 13 13 12 12 12 13 14
19 20 19 17 16 17 20 20 16 18 21 22 25 25 26 29 30 31 31 31 31 30 29 29 27 25 24 21 19 18 16 15 14 14 13 13 13 14 13 13 13 12 12 12
18 17 19 19 17 17 19 20 16 18 21 22 25 25 27 30 31 31 31 31 31 30 29 28 28 26 25 22 19 18 17 16 15 14 14 13 13 13 13 13 13 13 13 13
18 18 21 20 20 19 17 18 19 17 17 17 23 27 29 30 30 30 30 30 30 30 29 29 28 26 25 23 20 19 19 17 17 15 14 14 15 15 13 13 13 13 13 14
18 17 21 21 21 19 18 21 19 17 17 17 22 24 26 27 28 29 29 29 30 30 30 29 29 26 26 24 22 19 19 19 19 15 15 15 15 15 15 15 14 13 13 13
19 18 19 21 19 19 18 19 17 18 18 18 21 23 27 26 28 27 27 28 28 28 29 28 29 28 26 25 23 20 19 20 20 18 16 15 15 15 15 15 15 15 15 14
18 19 18 19 21 21 20 20 19 16 17 20 19 21 26 26 26 26 26 27 27 27 27 29 28 28 27 25 24 21 20 20 21 20 18 17 16 16 15 15 15 15 15 15
16 18 17 18 18 21 19 18 18 20 18 15 16 21 24 24 25 26 26 26 26 26 26 27 28 28 27 26 25 23 21 20 20 21 20 18 18 17 17 16 16 16 15 15
15 16 17 15 14 16 17 19 19 20 18 18 17 19 21 20 22 24 26 26 26 26 26 26 27 27 27 27 26 25 23 21 20 20 20 19 18 18 17 17 17 16 16 16
17 15 16 17 17 17 14 16 18 16 17 18 20 20 21 21 23 24 25 25 25 24 24 24 23 23 24 25 26 25 24 22 21 20 21 20 18 18 18 17 17 17 17 16
18 15 16 16 18 16 18 19 20 20 19 21 20 18 21 21 25 25 24 24 22 22 22 22 22 22 22 23 24 25 24 24 22 21 20 20 19 18 18 17 17 17 16 16
15 16 16 16 18 17 17 19 20 20 21 21 20 22 23 23 24 23 23 23 21 21 21 21 21 21 20 20 21 23 23 24 23 22 21 21 20 19 18 18 17 17 17 16
15 15 16 15 16 14 19 22 22 21 21 22 22 23 22 23 23 22 23 21 21 21 21 21 20 20 19 18 15 16 18 22 23 23 22 21 20 20 19 18 18 17 17 17
16 15 14 14 15 18 20 21 21 20 21 22 22 22 22 22 21 20 21 21 20 21 21 19 18 15 13 11 11 12 14 17 19 22 23 22 21 20 20 19 18 18 17 17
16 15 14 14 14 15 18 21 21 22 19 21 21 20 20 20 18 18 20 21 21 20 18 17 15 12 9 7 7 10 13 12 11 11 15 20 22 21 20 19 19 18 17 17
14 13 12 13 13 16 20 18 20 17 17 19 19 19 18 17 17 18 20 20 20 19 16 15 13 9 6 5 6 7 7 6 7 9 12 11 16 21 20 20 19 19 18 17
14 12 12 13 13 13 19 18 15 15 15 17 17 17 17 17 17 17 18 19 17 16 15 13 11 8 4 3 4 4 4 4 5 5 6 6 7 9 16 19 17 17 15 10
12 15 14 15 15 18 19 16 17 17 16 15 15 16 15 15 15 16 16 16 15 14 11 9 8 6 3 3 2 2 2 3 3 2 1 1 3 3 5 7 8 8 8 7
15 14 13 14 17 17 12 15 16 16 15 15 14 14 13 13 13 13 14 11 11 10 7 5 5 3 2 1 1 -0 -0 1 1 1 0 -1 -1 -1 -1 1 2 3 2 1
15 13 13 11 11 13 11 11 14 14 13 13 12 12 11 11 9 9 9 7 6 5 3 2 1 0 -0 -1 -1 -2 -1 -0 0 -1 -1 -2 -2 -3 -3 -4 -3 -2 -0 1
14 11 11 11 12 12 10 11 11 11 10 10 11 10 9 7 6 5 3 1 1 0 -1 -1 -2 -3 -3 -3 -3 -3 -3 -2 -1 -2 -2 -3 -3 -3 -4 -4 -4 -4 -4 -3

GFSCGP_925_temp_081.txt.gz
Temp
19 17 16 18 19 21 21 21 21 22 24 25 25 24 25 26 25 24 23 24 23 24 23 24 23 22 18 17 16 15 14 14 14 13 13 13 13 13 13 13 13 14 15 15
18 17 18 20 21 21 20 19 20 22 24 25 25 25 25 24 25 24 24 23 23 24 22 22 21 20 18 17 16 15 13 14 13 13 13 12 12 13 12 13 13 14 15 15
17 19 20 20 20 20 19 20 20 20 24 25 24 23 24 26 26 26 25 25 25 24 23 22 20 19 17 16 15 15 13 13 13 13 13 13 12 13 12 12 12 14 14 15
18 20 20 19 18 19 17 20 19 18 17 17 19 19 23 24 25 27 27 25 24 23 24 22 20 19 17 15 16 15 14 13 13 13 13 13 13 13 13 12 13 14 14 15
17 18 18 17 18 18 17 18 17 15 15 17 18 20 22 24 24 26 27 26 24 23 24 22 21 19 18 17 16 15 15 13 13 13 13 13 13 13 12 12 13 13 14 15
18 20 18 18 18 17 16 15 16 15 14 15 16 19 21 24 25 26 27 26 25 24 24 23 21 19 19 17 17 15 15 15 14 13 13 13 13 13 12 12 12 12 14 14
17 18 17 17 15 15 14 13 14 15 15 15 20 20 22 25 27 27 26 25 25 24 23 23 21 19 19 16 16 15 14 14 13 13 13 13 13 13 13 12 12 13 13 13
15 14 17 17 16 16 15 13 14 16 16 17 22 21 23 25 27 27 26 26 26 23 23 23 21 20 19 17 16 16 14 14 14 14 13 13 13 13 13 13 13 12 12 13
16 16 20 20 18 17 16 14 15 14 14 15 17 22 26 26 27 26 26 27 24 22 23 23 22 21 20 18 17 16 15 14 13 14 13 14 13 13 13 13 13 13 13 13
17 15 19 19 19 18 17 17 15 13 15 15 20 20 21 25 25 25 25 24 24 24 24 23 23 22 21 18 17 17 15 15 14 13 13 13 13 13 13 13 13 13 13 13
16 15 17 18 18 17 16 16 13 13 15 16 16 18 19 17 22 23 23 23 23 22 23 24 22 23 22 19 17 17 16 15 16 14 13 14 14 14 14 13 13 13 13 13
16 15 15 16 19 20 18 15 15 14 15 16 15 16 17 16 19 22 23 23 23 22 22 22 22 21 21 20 18 17 17 17 17 16 14 14 14 15 15 14 13 13 13 13
15 14 14 16 17 18 16 17 16 14 15 14 15 16 17 17 19 20 21 22 22 22 21 20 20 21 20 21 19 18 17 18 18 18 15 14 14 14 14 14 14 14 13 13
15 14 14 13 13 12 13 15 15 14 14 15 15 17 18 16 17 18 20 21 21 20 20 20 19 20 20 20 19 19 18 18 18 19 16 15 14 14 14 14 14 14 14 14
14 13 14 14 16 16 13 16 13 14 13 14 16 16 19 16 16 16 19 21 20 20 20 20 19 18 19 18 18 17 18 19 19 19 19 17 16 16 15 15 14 14 14 14
14 13 14 14 16 17 17 17 15 14 13 14 15 15 17 19 20 18 18 20 20 20 20 19 18 17 16 14 13 14 15 16 18 18 19 19 18 17 16 16 16 15 15 14
13 13 13 13 16 16 14 16 18 17 15 15 16 19 20 20 18 19 18 18 19 19 18 16 15 14 13 11 10 11 12 15 16 17 18 18 19 18 17 16 16 16 16 15
12 12 12 11 13 13 16 19 20 18 19 20 20 19 19 18 19 19 17 17 18 16 15 13 12 11 9 8 8 9 11 10 10 11 11 13 17 18 17 17 16 16 16 15
12 12 9 10 11 14 17 20 19 19 19 20 20 19 19 19 17 17 18 17 15 14 13 11 9 7 6 6 6 7 8 8 8 8 8 10 10 11 15 17 17 16 16 15
13 11 10 9 12 11 15 18 18 20 16 17 17 16 16 16 14 14 16 15 14 13 12 9 7 6 5 4 4 6 6 6 6 7 7 7 6 6 8 12 17 17 16 16
11 10 10 10 10 12 17 17 17 16 13 15 15 14 14 14 14 15 15 13 12 10 9 8 6 4 4 3 3 3 3 2 3 4 4 4 4 3 4 7 10 16 16 16
11 10 9 9 9 10 15 17 15 12 13 14 13 13 12 13 13 13 11 10 8 7 5 5 4 4 2 2 1 2 1 1 2 2 1 1 1 3 2 3 5 7 12 16
10 12 10 11 11 12 12 12 12 12 11 12 12 12 12 11 10 10 9 8 6 4 3 2 2 2 0 -1 -1 -1 -1 -0 1 0 -0 -1 -1 -0 2 -0 -1 1 3 4
10 10 11 12 10 10 10 11 12 11 12 11 11 10 10 8 7 7 5 4 3 2 1 1 0 -1 -2 -2 -2 -3 -2 -1 -0 -1 -2 -2 -3 -3 -3 -2 -2 -2 -2 0
11 10 9 10 10 9 8 8 10 10 10 11 10 8 7 6 5 4 2 2 1 -0 -1 -2 -2 -3 -3 -3 -4 -3 -3 -2 -1 -2 -3 -3 -4 -4 -4 -4 -4 -4 -4 -2
10 8 9 8 7 8 6 8 8 8 8 6 7 4 3 3 2 2 -0 -1 -2 -3 -3 -3 -4 -4 -4 -4 -4 -4 -4 -4 -3 -3 -4 -4 -4 -4 -4 -4 -5 -5 -4 -4

GFSCGP_925_temp_084.txt.gz
Temp
18 16 15 16 17 18 19 18 18 19 21 21 21 21 22 24 24 24 20 21 20 22 22 20 18 16 16 16 15 15 15 15 14 13 13 12 12 13 13 13 13 13 14 14
16 15 16 18 18 18 18 18 17 19 21 19 19 20 22 21 22 22 23 21 20 21 20 19 16 15 15 14 15 15 15 14 15 14 13 13 13 13 13 13 13 13 14 14
15 17 17 18 18 18 18 18 18 18 18 19 19 20 21 22 22 23 22 22 22 22 20 19 16 15 14 14 14 15 14 14 14 14 13 13 12 12 13 13 13 13 13 13
16 18 18 17 18 18 16 19 18 17 15 15 17 15 19 20 21 23 24 21 21 21 22 20 18 15 14 14 14 14 13 14 13 13 13 13 13 12 12 12 12 13 13 14
16 17 17 17 17 18 16 16 16 16 15 15 16 15 18 20 21 22 24 23 21 20 21 20 19 17 15 14 13 14 13 13 13 13 13 13 12 12 12 12 12 13 14 14
16 18 17 17 17 17 15 15 15 15 14 14 16 16 18 19 21 23 24 23 23 20 22 21 20 18 15 13 13 13 13 13 13 13 13 13 13 13 13 12 12 13 13 14
16 17 17 16 14 14 14 13 14 14 14 14 18 17 18 21 23 24 25 23 23 21 22 21 19 17 14 13 13 13 13 13 13 13 13 13 13 13 13 12 12 12 13 13
13 15 15 16 16 14 13 12 14 15 14 15 19 18 19 21 23 25 25 24 24 22 22 21 19 18 16 14 13 13 13 13 13 13 13 13 13 13 12 12 13 13 13 13
14 15 18 16 16 16 14 12 14 13 13 13 16 19 23 21 20 22 25 23 21 21 21 20 19 18 17 15 14 14 13 13 13 13 13 13 13 13 13 12 13 13 13 13
16 15 17 18 16 16 16 14 13 13 14 15 17 18 17 17 18 19 22 20 19 20 21 20 19 19 18 16 15 14 14 13 13 14 14 13 13 13 13 13 13 13 13 13
15 15 14 17 17 15 16 13 12 12 13 14 16 17 17 16 17 18 19 21 19 19 19 20 20 20 18 16 15 14 14 13 13 13 14 14 13 13 13 13 13 13 13 13
15 14 13 14 18 18 17 16 14 13 14 14 14 16 15 15 16 17 19 20 18 18 19 19 19 18 17 17 16 15 14 14 13 13 13 13 14 13 12 12 13 13 13 13
15 12 12 14 16 15 14 16 15 14 13 13 14 16 15 14 15 16 17 19 19 18 18 18 18 17 16 17 17 16 15 14 14 13 13 13 13 13 13 13 13 13 13 13
14 13 13 12 13 12 12 13 13 13 13 14 13 16 16 14 14 15 16 18 19 19 18 17 16 15 15 14 14 14 15 16 16 14 13 13 13 13 13 14 14 14 14 14
13 12 13 13 14 15 15 15 13 12 13 14 14 15 15 15 14 14 15 17 19 17 17 16 14 13 13 12 11 12 13 14 16 16 14 14 14 14 13 14 14 14 14 14
12 12 12 13 15 15 15 16 15 12 13 13 14 12 15 14 14 14 14 16 17 16 15 14 13 11 11 10 9 10 10 11 13 14 15 15 14 13 13 13 14 13 13 13
12 10 10 11 14 14 13 15 16 14 14 13 13 16 15 14 15 15 14 15 15 14 13 12 10 9 7 7 7 9 9 9 9 9 10 11 11 13 14 14 13 13 13 13
11 11 10 10 12 12 15 16 17 17 17 15 16 16 16 14 14 16 16 14 13 12 10 9 8 6 5 5 5 6 6 7 7 7 8 8 8 8 10 12 14 14 14 13
10 10 8 9 11 13 15 17 17 17 15 15 17 16 15 15 14 12 12 12 11 10 8 7 5 5 4 3 4 4 3 4 4 4 5 5 5 6 6 7 8 10 14 14
10 10 9 7 10 10 13 16 18 17 13 14 16 16 15 14 12 11 10 9 8 8 6 5 4 3 2 2 3 3 3 3 3 3 3 2 2 2 4 4 6 7 9 13
8 7 9 8 8 10 14 13 15 14 12 12 13 13 12 11 11 9 8 7 5 5 4 4 2 1 0 1 2 2 2 1 2 1 0 -0 -1 -0 0 0 2 4 6 8
10 9 8 8 8 10 11 13 13 11 11 11 11 11 10 9 9 7 6 5 4 3 2 2 2 0 -1 -1 -0 0 -0 -0 1 -0 -1 -2 -2 -2 -2 -2 -1 0 2 4
9 9 9 10 10 9 10 10 11 10 9 9 9 10 9 8 6 6 4 3 2 1 0 0 -0 -1 -2 -2 -2 -2 -2 -1 -0 -1 -2 -3 -3 -4 -3 -3 -3 -2 -1 0
7 7 10 11 9 9 8 9 9 9 10 9 8 8 7 6 5 3 2 1 0 -1 -1 -2 -3 -3 -3 -3 -3 -3 -3 -2 -2 -2 -3 -4 -4 -4 -4 -4 -3 -3 -3 -2
8 9 8 8 8 8 7 6 6 7 7 5 4 4 4 4 2 1 0 -0 -1 -2 -3 -3 -4 -4 -4 -4 -4 -4 -4 -3 -3 -3 -4 -4 -4 -4 -4 -4 -4 -4 -4 -4
6 6 7 7 5 6 5 5 5 4 3 4 3 1 0 1 0 -1 -2 -3 -3 -4 -4 -4 -5 -5 -5 -5 -5 -5 -4 -4 -4 -4 -5 -5 -5 -5 -5 -5 -5 -6 -5 -5

GFSCGP_925_temp_087.txt.gz
Temp
17 15 14 15 16 18 18 18 17 18 20 19 18 17 19 19 19 19 19 19 20 19 20 19 16 16 15 15 15 15 15 15 15 13 13 13 13 14 14 14 14 14 14 14
16 14 16 16 17 17 17 17 16 18 19 18 16 18 19 19 21 19 20 20 21 19 17 16 15 15 15 15 14 14 14 14 14 13 12 13 13 13 13 13 14 14 14 13
14 16 16 16 17 17 17 16 17 17 17 17 17 18 20 22 20 20 20 20 20 18 18 17 15 15 15 14 14 14 14 14 15 13 13 13 12 13 13 13 13 14 14 13
15 16 17 16 17 16 15 17 17 17 15 14 16 16 19 20 20 20 20 19 19 18 19 18 16 14 14 14 14 14 14 13 13 13 13 13 12 13 13 13 13 13 13 13
15 17 16 16 17 17 16 16 15 15 14 14 14 14 17 19 19 20 20 20 19 18 20 19 16 15 14 14 13 13 13 13 14 13 13 13 13 12 13 12 13 13 13 13
16 17 17 17 14 16 14 14 15 14 13 12 15 14 16 18 20 20 21 21 21 18 20 20 18 16 14 13 13 13 13 13 13 13 13 13 13 12 12 12 12 12 13 13
15 16 16 16 14 14 13 13 10 11 13 13 16 15 16 19 20 20 21 22 22 20 19 20 17 15 14 13 13 13 13 13 13 13 13 13 13 13 12 12 12 12 12 12
13 14 15 15 15 14 13 13 11 13 14 14 16 15 16 19 19 20 21 21 22 22 19 19 18 15 14 13 13 13 12 13 12 13 13 13 13 12 12 12 12 12 12 12
13 15 16 15 15 15 12 12 14 12 12 13 15 16 18 17 17 18 19 18 17 19 19 20 19 16 14 13 13 13 12 12 12 12 12 13 13 13 13 13 13 13 14 13
15 15 16 16 16 15 14 13 12 13 13 14 16 16 17 16 15 16 18 17 16 16 19 19 18 16 15 14 13 13 13 12 12 12 13 13 13 13 14 13 13 13 13 13
15 15 15 16 15 14 13 12 12 12 13 14 14 16 15 14 14 14 16 18 16 16 17 18 17 16 16 15 13 13 13 12 12 12 12 13 13 13 13 13 13 13 13 13
14 13 12 14 16 15 14 13 13 12 13 14 13 14 14 13 14 14 15 17 16 16 17 16 16 15 14 14 14 13 13 13 12 12 12 13 13 14 13 13 13 13 13 13
14 12 12 14 15 14 13 14 14 13 12 13 13 14 14 13 13 14 14 15 16 15 14 14 14 14 14 14 14 14 14 13 13 13 13 13 13 13 14 13 13 13 13 13
13 12 12 11 12 12 13 14 14 13 13 13 13 15 15 13 13 13 14 14 16 14 13 12 12 12 11 11 12 12 12 13 14 13 13 12 12 13 13 13 13 13 13 13
12 12 13 12 13 13 13 14 14 12 12 13 14 14 15 14 14 13 13 14 15 13 13 12 10 10 10 9 10 9 9 10 12 13 13 12 13 12 13 12 12 12 12 13
11 11 10 11 13 13 13 14 14 15 14 12 13 13 14 15 14 13 13 13 13 12 11 10 9 8 8 7 8 7 8 8 9 9 10 12 12 13 13 13 12 12 13 12
11 10 10 11 11 11 12 14 14 14 14 13 13 13 15 14 13 13 13 12 11 10 9 8 7 6 5 6 6 5 5 5 5 6 7 7 7 8 9 10 12 12 12 12
10 10 9 9 10 10 13 15 16 15 16 15 15 15 14 13 11 12 12 10 9 8 7 6 5 4 4 4 4 4 4 4 4 4 3 4 4 5 6 6 7 8 10 12
9 9 8 9 10 11 13 15 14 14 14 15 13 15 13 12 11 9 9 8 7 6 5 4 3 3 2 3 3 3 3 3 3 2 1 1 2 3 3 3 3 4 5 7
8 8 8 7 9 8 12 14 14 15 13 12 14 13 13 13 11 8 7 6 5 4 4 3 2 1 1 1 3 3 2 2 1 1 -0 -0 -0 0 0 0 1 2 3 4
7 7 8 8 9 9 12 11 13 13 12 11 11 11 12 9 9 7 5 4 3 3 3 2 1 -0 -1 -1 0 0 1 1 0 -1 -2 -2 -2 -2 -2 -1 -1 -0 1 2
8 7 7 8 8 9 10 11 12 9 9 9 9 9 8 7 6 5 4 3 2 1 1 0 -1 -2 -2 -2 -2 -1 -1 -1 -1 -2 -3 -3 -4 -3 -3 -3 -3 -2 -1 -0
7 8 9 9 9 9 9 9 9 9 9 9 8 8 7 6 5 4 2 1 0 -1 -1 -2 -2 -3 -4 -4 -3 -3 -3 -2 -2 -3 -4 -4 -4 -4 -4 -3 -4 -3 -3 -2
7 6 7 8 9 8 8 7 7 7 5 5 6 6 6 4 3 2 1 -0 -1 -2 -3 -3 -3 -3 -3 -4 -4 -4 -3 -2 -3 -3 -4 -4 -4 -5 -5 -5 -4 -4 -4 -4
7 6 7 7 6 6 6 6 6 5 4 3 2 2 2 1 0 -0 -1 -2 -3 -4 -4 -4 -4 -4 -5 -5 -5 -5 -4 -4 -4 -4 -4 -5 -5 -5 -5 -6 -6 -6 -5 -4
5 4 5 6 4 4 3 4 3 2 1 1 1 -1 -1 -1 -1 -2 -3 -4 -4 -5 -5 -5 -5 -5 -6 -6 -6 -6 -5 -5 -5 -5 -6 -6 -6 -6 -6 -6 -7 -7 -7 -7

GFSCGP_925_temp_090.txt.gz
Temp
15 14 13 14 15 17 17 17 17 17 18 18 17 17 16 17 17 17 17 17 17 17 18 19 19 17 17 15 15 15 15 15 14 13 12 12 13 14 14 14 14 14 14 14
15 14 15 16 15 16 16 16 15 17 17 18 16 17 17 17 18 18 18 17 17 18 17 16 15 15 15 15 15 14 14 14 13 13 13 13 13 13 14 14 14 14 14 14
15 16 16 16 15 15 15 15 16 16 16 16 15 18 19 20 19 18 18 18 18 18 18 15 14 14 15 15 15 14 13 13 13 13 12 13 13 13 13 13 13 14 14 14
15 16 16 15 16 16 15 16 17 16 15 14 15 14 18 19 19 18 19 17 18 17 17 15 14 15 15 16 15 14 13 13 13 13 12 12 13 13 13 13 13 13 13 14
15 15 15 15 16 16 16 16 15 15 14 13 14 13 15 17 18 19 19 19 17 17 16 15 15 15 15 15 14 14 13 13 12 13 12 12 12 12 14 13 13 13 13 13
15 16 16 15 13 16 15 15 14 13 13 11 13 13 15 16 17 17 18 19 19 18 16 17 16 16 15 15 14 13 13 13 12 12 12 13 12 13 13 12 13 13 13 12
15 15 16 15 13 14 14 14 10 10 13 11 15 13 16 17 18 16 17 18 18 18 17 16 16 14 15 15 13 13 13 13 13 12 12 12 12 13 14 13 12 12 13 12
12 13 14 15 16 14 13 14 12 13 14 14 15 13 14 17 16 16 16 17 16 15 16 16 16 15 14 15 13 13 13 13 12 12 12 12 13 13 13 14 13 12 12 12
12 15 14 15 14 15 12 12 13 12 12 11 13 14 16 16 15 15 15 15 16 15 14 16 18 16 14 15 14 13 13 13 13 12 13 12 12 12 13 13 13 11 12 12
15 14 15 14 15 13 14 13 12 12 13 13 14 14 14 14 15 15 14 14 15 15 15 17 19 16 14 14 14 13 13 13 13 13 13 13 12 12 12 12 12 12 12 13
14 14 14 15 15 13 13 12 11 12 12 13 12 13 14 14 14 14 14 15 15 14 15 16 16 15 14 14 14 13 13 13 13 12 12 12 13 12 13 13 12 13 13 12
14 12 13 14 13 14 14 12 12 11 12 13 13 14 14 14 14 13 13 14 14 13 13 14 14 14 13 13 13 13 12 12 12 12 12 12 12 12 13 14 14 13 13 13
14 12 13 13 14 14 13 13 14 12 11 12 12 13 13 14 14 13 12 13 13 12 12 12 12 13 13 12 12 12 12 12 12 12 12 12 12 12 13 14 14 15 14 13
13 12 12 11 12 13 12 14 14 13 11 13 13 12 14 15 14 13 13 13 12 11 10 10 10 10 10 10 10 10 10 12 13 12 12 12 12 13 13 14 14 14 14 14
12 11 12 12 12 12 12 12 12 12 12 12 13 12 14 14 14 13 12 12 11 10 9 8 8 8 8 8 8 8 8 9 12 12 12 12 13 12 13 13 13 14 13 13
11 10 11 12 12 11 11 12 12 12 13 13 14 13 14 14 15 13 13 11 10 9 8 7 6 6 6 5 5 5 5 6 7 8 8 8 10 12 12 12 12 13 12 12
10 10 10 11 11 11 11 11 13 13 13 13 12 13 14 12 13 13 11 10 9 8 7 6 5 5 4 4 4 4 4 4 4 4 5 5 6 6 7 8 10 10 10 12
9 10 8 9 10 9 13 13 13 13 14 13 14 14 13 10 9 9 9 8 7 6 5 4 3 3 3 3 3 3 3 3 2 2 2 2 3 4 4 5 5 6 7 8
9 8 8 8 9 11 12 14 12 12 13 12 12 13 12 9 9 7 6 6 5 4 3 2 1 1 1 1 3 3 3 1 1 0 -0 -0 0 1 1 1 2 3 4 5
7 8 8 7 9 7 11 13 11 12 11 9 10 12 11 11 11 7 5 5 4 3 2 1 0 -0 -1 -1 1 2 2 1 -0 -1 -2 -2 -1 -2 -2 -2 -1 0 2 2
7 7 8 8 9 9 10 10 11 11 10 8 9 10 10 8 8 4 4 2 1 1 0 0 -1 -2 -3 -2 -1 -0 -0 -0 -1 -2 -3 -3 -3 -2 -3 -3 -2 -1 -0 -0
8 7 7 9 8 8 8 10 10 9 8 8 8 7 6 4 3 2 1 0 0 -1 -1 -2 -2 -3 -3 -3 -2 -2 -2 -1 -2 -3 -4 -4 -4 -3 -3 -3 -3 -3 -2 -2
6 8 8 8 8 8 8 7 7 7 6 7 6 5 3 2 1 1 -0 -1 -1 -2 -3 -2 -3 -3 -4 -4 -4 -3 -4 -3 -3 -4 -4 -5 -5 -5 -5 -4 -4 -4 -4 -4
6 6 7 7 6 6 6 5 4 3 3 3 4 2 3 2 1 -0 -2 -2 -3 -3 -3 -4 -4 -4 -4 -5 -5 -5 -4 -3 -4 -4 -5 -5 -6 -6 -6 -6 -5 -5 -4 -4
5 6 5 7 5 5 4 3 3 2 2 1 0 1 1 0 -1 -1 -2 -3 -4 -4 -4 -5 -5 -5 -6 -6 -6 -6 -5 -4 -5 -5 -5 -6 -6 -6 -7 -7 -7 -6 -6 -5
4 4 4 5 3 4 2 1 1 0 -1 -1 -1 -2 -2 -2 -2 -3 -4 -5 -5 -5 -6 -6 -6 -6 -7 -8 -8 -7 -6 -6 -5 -6 -6 -7 -7 -7 -7 -7 -8 -8 -7 -7

GFSCGP_925_temp_093.txt.gz
Temp
16 15 16 17 17 18 18 18 19 19 20 19 20 21 21 21 21 20 21 22 22 22 24 22 21 20 18 17 17 16 14 15 15 15 14 13 14 14 14 14 14 14 13 13
15 16 17 17 17 18 18 18 18 18 19 19 20 20 20 20 21 22 22 22 22 22 22 22 21 18 17 17 17 15 14 14 15 14 13 13 13 13 14 14 14 14 14 14
16 17 16 16 16 16 17 18 17 18 18 18 18 20 21 22 21 21 21 21 22 22 22 22 20 18 17 17 16 15 14 14 14 13 13 13 13 13 13 13 13 14 14 14
14 17 16 16 16 17 16 17 18 18 18 17 17 18 20 21 21 20 20 20 20 21 22 22 21 18 17 17 16 15 14 13 13 13 12 13 13 13 13 13 13 13 14 13
15 15 15 14 16 17 17 17 17 17 17 16 16 16 19 19 20 18 18 18 19 19 21 21 21 19 18 17 16 14 13 13 13 13 13 13 13 14 13 13 13 13 13 13
16 16 16 16 14 17 16 16 15 15 15 15 16 16 17 19 18 18 17 17 17 18 18 20 21 19 17 17 16 14 14 13 12 12 12 13 13 13 13 13 13 13 13 13
15 16 15 15 15 15 15 16 15 14 14 16 16 16 17 17 16 16 16 16 17 17 17 17 20 18 17 17 15 15 14 13 13 12 12 12 12 12 14 13 13 13 12 12
14 14 15 15 16 15 15 16 16 16 15 16 16 17 18 16 17 18 17 17 17 17 17 17 18 19 17 17 15 14 14 13 13 12 12 12 12 13 14 13 13 13 12 12
14 14 14 15 14 16 14 15 15 14 13 14 16 17 18 17 17 17 17 17 16 16 16 16 18 18 17 17 15 14 14 14 13 12 12 12 12 13 13 13 14 14 13 12
15 14 14 14 16 15 16 15 14 13 14 14 16 16 17 17 16 16 16 16 14 14 14 16 19 18 17 16 15 14 13 13 13 13 12 12 12 12 13 13 12 13 13 12
15 15 14 15 15 14 14 14 13 14 14 14 14 16 16 16 15 16 15 14 12 12 12 15 17 18 16 16 14 13 13 13 13 13 12 13 13 12 12 12 13 13 12 12
14 14 13 13 14 15 15 14 14 15 13 13 13 15 15 15 15 15 15 13 12 11 10 11 14 15 15 14 14 13 14 13 13 13 13 13 13 13 12 12 12 12 12 12
13 13 13 12 14 15 14 15 14 13 12 12 13 16 15 16 16 15 13 12 11 10 9 9 10 10 13 13 13 12 12 13 12 12 12 12 13 13 12 13 13 13 13 12
12 12 13 13 13 14 13 14 14 14 12 13 14 15 16 15 14 15 12 11 10 9 8 8 7 7 7 7 8 9 11 12 12 12 12 12 12 12 12 13 14 14 14 14
12 11 13 13 13 13 13 13 14 13 14 13 14 15 15 15 14 14 12 11 9 8 7 6 6 6 6 5 5 5 6 8 12 12 12 12 12 12 12 12 13 13 14 13
12 11 12 12 12 12 13 14 13 13 14 14 14 14 16 14 13 13 12 10 8 7 6 5 5 5 5 4 4 4 3 4 4 5 6 7 10 10 10 11 12 12 12 14
11 11 11 12 12 12 12 13 14 14 14 14 14 15 15 11 9 10 9 8 7 5 4 4 4 3 3 4 4 3 3 2 2 2 2 3 5 5 6 7 8 9 9 10
10 11 10 11 11 10 13 14 14 13 14 13 14 14 14 10 8 6 7 6 5 4 3 2 1 1 1 2 3 3 2 2 1 0 1 1 2 2 3 3 3 4 5 6
10 10 10 10 11 12 13 12 12 12 13 10 11 12 12 9 8 5 4 4 3 2 2 0 -0 -1 -0 1 2 2 2 0 -0 -0 -0 -0 0 1 1 1 1 2 3 3
9 9 10 9 10 9 11 11 12 12 13 9 10 13 11 11 11 5 2 1 1 1 0 -0 -1 -2 -1 -1 0 1 1 -0 -1 -1 -1 -1 -1 -1 -1 -1 -0 1 1 0
9 9 9 8 9 11 9 10 11 12 11 9 8 7 8 5 5 2 1 -0 -1 -0 -0 -1 -1 -2 -2 -2 -1 -1 -1 -1 -2 -2 -3 -3 -2 -2 -2 -2 -2 -1 -1 -1
9 9 8 9 9 8 8 11 11 9 8 7 6 5 4 3 2 1 -0 -1 -1 -1 -1 -1 -2 -3 -3 -3 -2 -2 -2 -2 -3 -3 -4 -4 -4 -3 -3 -3 -3 -3 -3 -3
8 8 8 8 8 6 5 5 4 5 5 5 4 3 3 2 0 -1 -2 -2 -2 -2 -2 -2 -2 -3 -4 -4 -4 -4 -3 -3 -3 -4 -4 -5 -5 -5 -4 -4 -4 -3 -3 -3
7 6 7 7 6 4 4 4 3 2 1 1 2 2 1 0 -1 -2 -2 -3 -3 -3 -3 -3 -3 -4 -5 -5 -6 -5 -4 -4 -4 -4 -4 -5 -5 -5 -5 -5 -5 -5 -4 -4
5 6 5 6 5 4 3 2 2 1 1 -0 -1 0 0 -0 -1 -1 -2 -3 -4 -4 -4 -4 -5 -5 -6 -6 -6 -7 -6 -4 -4 -5 -5 -5 -6 -6 -6 -7 -6 -6 -6 -6
4 4 5 5 3 3 1 0 -0 -1 -2 -2 -1 -2 -2 -2 -2 -3 -4 -5 -5 -5 -5 -6 -6 -6 -7 -7 -8 -8 -7 -6 -5 -5 -6 -6 -6 -7 -7 -7 -8 -8 -8 -8

GFSCGP_925_temp_096.txt.gz
Temp
17 17 18 20 20 21 22 21 22 23 24 23 24 25 26 26 26 25 26 26 27 28 29 28 28 27 25 25 23 22 20 17 15 15 15 15 15 15 14 15 14 15 14 14
17 17 20 21 20 19 17 17 21 23 23 22 23 24 25 26 25 25 26 27 27 28 28 28 28 27 25 24 23 22 21 16 16 16 16 16 15 15 15 14 15 15 14 14
18 19 20 19 18 17 18 19 20 21 22 23 22 22 24 26 26 26 26 26 25 25 25 26 27 27 26 23 23 22 21 15 15 18 17 15 16 15 15 14 14 14 14 13
18 20 18 17 18 18 19 21 20 20 20 21 22 22 24 24 25 25 23 23 23 23 23 24 26 26 26 24 22 22 20 15 15 16 17 17 17 16 15 15 15 14 13 13
17 16 17 16 18 19 19 21 19 20 20 21 21 20 24 24 23 23 23 22 22 22 23 23 24 25 25 24 22 21 17 14 15 15 18 17 18 18 15 16 15 13 13 13
18 18 18 18 18 19 20 19 19 19 20 18 21 21 23 24 22 21 21 21 21 22 22 23 23 23 24 24 21 19 15 14 14 15 17 17 18 17 16 15 14 13 13 13
17 18 18 18 16 18 19 19 17 17 17 19 20 20 22 21 20 20 20 21 21 21 21 21 22 23 24 23 21 18 14 14 14 15 15 16 17 16 16 15 14 13 13 13
16 15 17 17 17 17 18 19 19 18 19 20 20 20 22 21 21 21 21 21 21 20 20 19 19 21 22 22 21 17 15 15 14 14 15 14 16 14 16 15 14 13 12 12
17 16 18 18 18 19 17 18 19 17 17 18 21 21 21 20 22 21 21 21 19 19 18 17 15 20 22 22 21 17 16 17 14 14 14 14 15 14 16 16 16 15 13 12
18 15 17 16 18 18 19 20 17 17 16 18 20 20 21 20 20 20 20 19 18 17 15 13 12 20 22 22 21 16 16 16 14 14 14 13 13 13 15 15 15 14 14 12
18 18 15 16 18 18 17 17 18 19 18 18 18 20 19 19 19 19 19 17 16 15 13 10 10 14 21 21 19 15 15 15 13 14 14 13 13 13 14 15 14 13 12 12
16 17 15 17 17 19 20 19 19 18 16 17 17 19 19 19 19 18 16 15 15 13 11 9 8 9 16 18 15 14 15 13 13 13 13 13 13 13 13 14 14 14 12 12
16 16 15 14 16 18 18 18 18 17 17 15 16 19 19 20 19 18 12 12 13 12 10 7 7 7 8 8 13 14 13 13 14 13 13 14 14 14 13 13 14 14 14 13
15 16 16 17 17 18 16 17 17 17 16 17 18 18 19 19 17 17 11 11 11 10 7 5 5 6 6 6 6 7 10 13 13 13 14 13 13 13 13 14 14 13 13 14
14 15 16 16 16 17 17 17 16 17 17 16 18 17 18 16 15 15 11 10 9 8 6 4 3 4 5 5 4 5 5 6 10 11 10 12 12 13 13 14 15 14 14 14
11 13 15 14 15 16 16 16 16 16 16 17 17 18 18 15 13 9 8 8 7 5 4 4 2 2 4 4 4 3 3 3 4 4 4 5 7 10 10 12 12 13 12 12
13 14 15 14 15 15 15 15 16 17 17 17 16 17 18 14 10 8 7 6 5 4 3 2 1 1 2 3 2 2 2 1 1 2 2 2 3 4 5 6 8 8 8 9
13 14 14 13 14 13 15 16 16 16 15 15 16 16 15 10 7 5 5 5 4 3 2 1 0 -0 0 1 2 1 1 1 1 1 1 1 2 1 2 3 3 4 5 4
13 13 13 13 14 14 14 13 13 14 14 13 12 14 10 9 8 4 3 2 2 1 1 1 -0 -1 -0 0 1 1 1 0 0 0 0 1 0 1 1 1 2 2 2 1
13 13 13 13 12 12 12 13 14 14 14 10 10 11 11 9 11 5 2 0 0 -0 1 2 1 -0 -0 -0 -0 0 0 -0 -1 -1 -1 -0 -0 0 0 1 2 1 0 -0
12 11 11 11 12 13 10 13 14 14 11 9 8 6 5 4 3 1 0 -0 -1 1 1 1 1 1 -1 -1 -0 -0 -1 -2 -2 -2 -1 -2 -2 -1 -1 -1 -0 0 0 -0
12 12 11 11 11 11 6 12 11 6 6 6 5 4 3 2 1 -0 -1 -1 -1 1 1 0 -0 -1 -1 -2 -1 -1 -1 -1 -2 -3 -3 -3 -3 -2 -2 -2 -1 -1 -1 -1
10 8 9 8 7 5 4 4 3 3 3 4 4 3 3 1 0 -0 -1 -2 -2 -2 -0 -0 -1 -2 -3 -3 -2 -2 -3 -2 -2 -2 -2 -2 -3 -3 -3 -2 -2 -2 -2 -2
8 8 8 7 5 4 4 3 2 2 2 1 2 2 2 1 -0 -1 -1 -1 -1 -1 -1 -0 -1 -1 -3 -3 -4 -4 -3 -3 -2 -3 -3 -3 -4 -4 -3 -4 -4 -3 -3 -3
8 8 6 6 5 5 4 2 2 2 2 1 2 2 2 2 2 2 1 0 -1 -1 -1 -2 -2 -3 -3 -4 -4 -4 -3 -2 -2 -3 -3 -4 -4 -5 -6 -7 -6 -6 -6 -5
6 5 7 6 4 4 2 1 0 0 -0 1 2 1 1 1 1 -0 -1 -2 -2 -3 -3 -3 -3 -4 -5 -5 -6 -6 -5 -3 -2 -3 -3 -4 -4 -4 -4 -6 -7 -8 -8 -8

GFSCGP_925_temp_102.txt.gz
Temp
18 17 16 17 19 20 21 22 23 24 22 23 24 26 28 29 29 29 30 30 30 30 31 31 31 31 31 31 30 26 23 20 18 17 18 18 18 18 17 18 19 18 17 17
17 14 17 18 19 20 21 21 22 20 21 22 22 21 25 28 28 29 29 29 29 29 30 30 30 30 30 30 29 28 24 22 19 18 18 17 17 17 16 17 18 17 17 17
16 17 18 18 19 20 21 21 19 19 20 15 17 17 22 26 28 29 29 29 29 29 29 29 29 28 28 28 28 28 27 23 21 18 18 17 17 17 16 17 17 18 18 17
17 19 17 19 19 20 20 23 20 20 14 14 20 18 23 25 26 26 28 28 28 28 27 27 26 26 27 27 27 27 27 26 22 18 17 18 18 18 17 18 17 17 17 16
16 18 17 18 20 21 21 23 20 20 16 15 17 16 20 25 26 25 27 27 25 25 25 25 25 25 25 25 26 27 26 26 23 18 18 19 20 19 18 18 18 18 15 14
17 19 15 19 21 22 23 18 18 18 17 14 17 18 22 24 25 26 25 25 24 24 23 23 23 22 22 22 21 24 26 26 22 19 19 20 20 20 19 19 18 15 14 14
16 16 17 21 20 21 20 17 16 15 14 15 20 20 22 24 25 24 24 24 23 22 21 21 20 19 18 18 19 20 24 25 20 19 19 21 21 21 21 19 18 14 14 14
15 12 13 19 21 19 19 18 16 16 16 18 21 17 19 23 24 24 23 21 21 21 19 18 17 16 14 15 15 17 16 24 19 18 19 20 20 21 20 18 18 14 14 13
12 12 17 20 21 20 19 18 19 14 17 15 18 16 19 20 23 22 21 20 19 19 17 16 14 11 10 12 11 12 13 21 18 17 18 19 20 21 20 18 17 15 13 13
13 13 18 19 19 19 18 19 14 13 15 16 19 19 18 18 20 20 18 17 16 16 15 13 11 8 8 8 8 11 18 18 16 16 17 17 19 20 20 18 16 15 14 13
15 15 17 17 13 16 17 14 14 15 17 16 17 15 14 16 17 18 16 14 13 13 12 11 8 6 6 6 6 7 17 18 16 16 16 16 18 19 19 17 16 15 14 13
19 16 15 17 15 18 18 17 17 14 18 16 14 14 15 17 18 15 13 12 11 10 9 8 7 5 5 4 4 5 6 16 16 15 15 16 16 18 18 16 15 16 14 14
15 16 13 16 17 14 17 17 19 18 14 18 16 14 17 15 13 12 10 9 9 8 7 6 6 5 4 3 3 3 4 5 13 14 15 15 15 17 17 16 15 16 14 13
15 15 13 15 17 15 13 14 15 18 14 17 16 14 15 13 11 10 9 8 8 7 6 5 4 4 3 3 2 2 2 3 6 13 14 14 14 15 15 15 16 15 14 14
12 11 13 14 16 17 14 14 15 18 18 13 17 15 13 11 10 9 7 7 6 6 5 3 3 3 2 2 1 1 1 2 3 4 7 8 12 14 14 14 15 15 15 15
11 11 10 11 18 15 15 17 17 18 18 18 15 12 12 11 8 7 6 6 5 4 3 2 2 2 2 1 1 1 1 1 1 2 3 4 6 8 10 12 13 13 13 13
11 13 13 14 18 17 15 17 17 16 15 15 12 12 12 8 6 5 5 4 4 4 3 1 1 1 0 -0 -0 0 0 0 0 1 1 1 2 3 4 5 6 8 9 10
12 14 15 14 15 12 15 17 15 14 13 14 14 12 8 5 3 3 2 3 2 3 4 2 0 -0 -1 -1 -0 -1 -0 -0 -0 -0 0 1 1 1 1 1 1 1 3 3
15 14 14 14 15 14 15 13 12 11 9 11 12 11 8 5 4 2 1 2 2 2 5 4 3 1 0 -1 -1 -1 -2 -1 -1 -1 -1 -0 0 0 0 0 -0 -0 -0 -1
16 15 15 16 15 12 9 10 13 14 8 8 9 8 8 7 9 3 1 1 1 4 5 4 3 2 1 -0 -1 -1 -2 -2 -2 -2 -2 -1 -0 -0 -0 0 -0 -0 -0 -1
13 13 13 14 14 10 7 10 12 13 7 7 7 6 5 3 2 1 1 0 -0 1 5 4 2 1 -0 0 -1 -1 -1 -2 -2 -3 -2 -2 -1 -1 -0 -0 -0 -1 -1 -1
11 11 11 11 12 10 6 10 8 5 4 5 5 5 3 2 1 1 -0 -0 1 2 5 4 2 1 -0 -1 -0 -1 -2 -2 -3 -3 -3 -3 -3 -3 -2 -1 -1 -1 -1 -2
10 10 10 8 7 5 5 5 4 4 4 4 4 5 4 2 1 0 0 0 2 3 3 3 2 1 -0 -1 -1 -1 -1 -2 -2 -3 -5 -5 -5 -5 -4 -4 -4 -3 -2 -2
10 12 8 7 6 5 5 5 4 4 3 5 6 6 5 3 2 2 3 3 4 3 3 2 1 -0 -2 -2 -2 -2 -1 -1 -2 -2 -4 -5 -6 -6 -6 -6 -6 -6 -5 -5
10 11 9 6 6 5 4 4 4 4 5 5 6 6 5 5 5 4 4 3 2 2 1 -0 -1 -2 -3 -4 -4 -4 -3 -1 -1 -2 -2 -3 -5 -6 -7 -7 -7 -7 -7 -6
8 6 7 6 4 4 3 2 3 3 4 5 5 5 4 4 4 3 2 1 0 -0 -1 -2 -3 -3 -4 -5 -6 -5 -5 -4 -3 -3 -3 -3 -3 -4 -6 -7 -8 -7 -7 -7

GFSCGP_925_temp_108.txt.gz
Temp
12 10 10 11 12 13 12 13 12 14 15 16 17 18 17 16 20 23 22 21 23 23 23 25 28 27 27 27 24 22 20 19 18 19 18 18 18 19 19 19 18 18 17 17
10 10 12 13 12 12 13 13 11 14 16 16 15 14 15 16 17 18 19 18 19 21 24 24 24 22 22 21 23 22 20 19 19 19 18 18 17 18 18 18 18 18 18 17
10 12 13 13 12 11 12 13 12 12 14 16 15 15 16 18 18 19 19 20 20 21 19 18 16 15 16 16 19 19 18 17 18 19 18 18 17 17 17 17 17 17 17 18
11 13 13 12 12 12 11 14 11 12 13 13 14 13 15 17 17 19 20 20 18 17 15 14 13 12 12 13 14 17 18 17 17 17 17 17 17 17 17 17 17 17 17 17
11 12 12 11 13 14 13 14 12 13 13 13 14 12 13 16 17 18 19 16 15 13 12 11 11 10 10 10 11 13 15 15 16 17 17 17 18 17 18 17 17 18 17 17
10 12 11 12 14 15 14 13 13 13 13 12 15 12 14 17 18 17 15 13 12 10 9 9 9 9 8 8 8 9 11 13 14 15 17 17 17 17 17 16 16 18 17 17
12 11 13 14 13 13 13 12 10 10 10 13 15 13 16 16 17 15 12 11 10 9 8 7 6 6 7 7 6 7 7 8 12 14 15 16 17 17 17 16 16 15 15 15
11 11 14 13 13 13 12 13 12 12 13 14 16 14 15 12 11 11 10 9 8 7 6 6 6 6 6 6 5 5 5 6 7 12 15 15 16 16 16 16 16 15 15 16
10 11 14 14 14 13 13 13 14 14 12 11 14 15 13 12 11 8 8 7 7 6 6 6 5 5 5 4 4 4 4 5 6 8 15 16 16 16 17 17 17 16 16 16
10 9 13 15 14 13 13 14 13 10 11 11 14 14 13 10 9 8 7 7 7 6 6 5 5 4 4 4 3 3 4 4 5 7 12 15 16 16 17 17 16 16 16 16
11 9 13 14 13 12 13 12 13 14 13 12 13 12 10 9 8 7 6 6 6 5 5 5 5 4 3 3 3 3 3 3 4 6 12 15 16 16 17 17 16 16 16 16
12 10 11 13 13 12 13 13 14 12 13 12 12 10 7 8 7 7 6 6 5 5 4 4 3 3 3 2 2 2 2 2 3 4 8 14 15 16 15 16 15 15 15 15
11 11 11 13 13 12 12 14 14 12 11 12 13 10 8 8 7 7 5 5 5 4 4 3 3 2 2 2 1 1 2 2 2 3 5 8 11 14 14 15 14 14 15 14
10 11 11 11 12 10 11 13 12 12 12 12 11 10 9 8 7 6 5 5 5 4 3 3 2 1 1 1 1 1 0 1 1 2 3 3 5 8 12 14 14 15 14 14
10 9 10 10 10 11 10 10 11 12 11 11 10 9 8 7 6 5 5 5 5 4 3 2 1 1 0 0 -0 -0 -0 -0 1 1 1 2 2 4 7 11 14 13 13 13
10 9 9 10 10 11 10 9 10 10 10 10 9 7 6 5 5 4 4 4 4 3 1 1 1 0 0 -0 -1 -1 -1 -1 -0 0 0 1 1 1 2 3 5 11 12 12
10 9 10 11 11 10 9 8 8 8 8 9 9 7 5 4 3 3 3 3 3 2 1 -0 -0 -0 -1 -1 -1 -1 -2 -1 -1 -1 -1 -0 0 -0 0 0 0 2 5 7
10 11 11 11 11 9 7 7 8 7 7 7 7 6 4 3 2 2 2 2 2 2 1 -0 -1 -1 -1 -1 -2 -2 -2 -2 -2 -2 -2 -2 -1 -0 -1 0 -1 -0 -1 -1
12 11 10 11 11 9 9 7 6 8 6 5 6 5 3 2 3 1 1 1 1 1 -0 -1 -1 -1 -1 -2 -2 -3 -3 -3 -3 -3 -3 -2 -2 -1 -1 -1 -1 -1 -1 -1
11 10 9 10 10 9 7 6 7 8 6 5 4 4 4 5 4 1 0 0 1 0 -0 -1 -2 -1 -2 -2 -2 -2 -4 -4 -4 -4 -4 -2 -2 -2 -2 -2 -2 -2 -2 -2
9 8 8 9 9 8 4 5 7 9 5 4 3 2 2 2 1 0 0 -0 0 1 -1 -2 -3 -3 -3 -3 -3 -3 -3 -5 -5 -5 -4 -4 -3 -3 -2 -3 -3 -3 -3 -3
8 8 6 7 7 7 4 5 6 5 4 4 3 3 2 1 1 -1 0 -2 -1 -1 -2 -3 -4 -4 -4 -4 -4 -3 -3 -4 -5 -5 -5 -5 -5 -4 -4 -4 -4 -4 -4 -4
7 7 6 6 5 4 4 3 3 4 3 3 3 3 3 2 1 -1 -3 -3 -2 -2 -3 -4 -4 -5 -5 -5 -5 -4 -3 -3 -4 -5 -6 -6 -6 -6 -5 -5 -5 -5 -5 -5
7 7 4 4 4 4 3 3 3 3 3 3 4 4 3 2 1 -1 -2 -3 -3 -3 -4 -5 -5 -5 -6 -6 -6 -5 -4 -4 -4 -4 -5 -6 -6 -7 -7 -6 -6 -6 -6 -6
5 6 6 4 3 3 2 2 2 3 4 2 1 1 2 -0 -1 -2 -3 -3 -4 -4 -5 -6 -6 -6 -7 -7 -6 -5 -5 -4 -4 -5 -5 -6 -6 -7 -7 -7 -7 -6 -6 -6
5 4 5 4 4 3 2 1 2 1 1 1 -0 -1 -2 -2 -3 -4 -4 -5 -5 -6 -6 -7 -7 -8 -8 -8 -7 -6 -5 -5 -5 -5 -5 -5 -6 -6 -7 -7 -7 -7 -7 -6

GFSCGP_925_temp_111.txt.gz
Temp
11 9 8 10 10 11 11 11 11 12 11 12 13 13 14 16 17 17 16 20 19 22 21 22 23 21 21 22 22 21 20 19 18 18 17 17 17 18 18 18 18 18 18 17
10 9 11 12 11 11 11 10 11 12 13 12 12 12 14 16 16 18 18 17 17 18 19 16 13 14 13 14 20 20 19 19 19 18 18 18 17 17 17 17 18 18 18 17
9 11 13 12 11 11 11 10 10 10 13 13 12 10 13 16 16 17 17 17 17 16 13 13 12 10 10 10 12 17 19 18 17 17 17 18 17 16 16 17 18 18 17 17
10 11 11 11 11 11 9 12 11 11 10 9 13 10 14 15 16 17 18 14 12 11 10 10 10 9 8 8 10 12 16 17 17 18 17 17 17 17 17 16 16 16 17 17
10 11 11 11 11 12 11 13 12 12 12 9 10 10 12 14 15 14 12 11 9 9 8 8 8 8 7 7 8 9 11 14 15 17 17 17 17 17 17 17 16 16 17 17
10 11 11 11 12 12 13 12 12 11 10 9 11 12 13 14 14 11 9 8 8 7 6 6 6 6 6 5 6 7 8 10 13 14 16 17 16 17 18 17 16 16 16 16
11 11 10 12 11 12 12 11 9 10 7 10 13 12 14 11 10 10 8 7 7 6 6 5 5 5 5 4 4 5 6 7 9 12 13 15 16 17 17 17 16 15 15 16
9 12 13 13 13 13 11 11 11 10 12 13 15 12 12 9 8 8 8 7 6 6 6 5 5 5 4 4 4 4 4 5 7 8 10 13 15 16 16 16 16 16 16 16
10 9 13 13 14 13 13 11 13 11 12 12 13 12 10 8 7 6 6 6 6 6 5 5 5 4 4 3 3 3 4 4 5 7 8 9 13 15 16 16 16 16 17 16
10 10 12 13 14 13 13 13 12 11 11 9 13 11 10 8 7 6 5 5 5 5 4 4 4 4 3 3 2 3 3 4 4 5 8 9 10 14 16 16 15 15 16 16
11 9 12 14 12 11 12 12 12 13 11 10 11 11 8 7 6 6 5 4 4 4 3 3 3 3 3 2 2 1 2 2 3 4 5 8 12 14 15 16 15 15 16 15
11 10 10 13 13 12 12 13 13 11 12 12 11 9 6 7 6 5 5 3 3 3 4 3 2 2 2 1 1 1 1 1 2 3 4 5 8 12 15 15 15 15 14 14
10 11 10 12 12 11 11 12 14 12 12 11 11 9 7 6 6 5 5 3 3 3 3 3 2 2 1 1 1 1 1 0 1 2 2 3 4 7 10 11 14 14 14 14
10 10 10 10 11 10 10 11 13 11 12 10 10 8 7 6 6 5 4 4 3 3 2 2 2 1 1 0 -0 -0 -0 -0 0 1 1 2 2 3 5 7 11 13 13 13
9 9 9 9 9 9 9 10 11 11 10 10 8 7 6 5 5 4 4 4 3 2 1 1 1 1 0 -0 -1 -1 -1 -1 -0 -1 0 1 1 2 3 4 7 9 12 13
9 9 9 9 8 8 8 8 8 9 9 8 7 6 4 4 3 3 3 3 2 1 0 0 0 -0 -0 -1 -1 -2 -2 -2 -1 -1 -1 -1 0 0 2 1 2 3 4 7
8 9 9 10 11 10 9 7 7 7 7 8 8 6 4 3 3 2 2 2 1 0 -1 -1 -1 -1 -1 -1 -2 -3 -3 -3 -3 -2 -2 -1 -1 -1 -1 1 1 2 1 1
8 9 9 10 10 9 7 6 7 6 6 6 6 4 3 2 1 1 1 1 0 -1 -1 -1 -2 -2 -2 -2 -2 -4 -4 -4 -4 -3 -3 -3 -2 -2 -1 -1 -1 -0 1 0
10 9 10 10 9 8 7 6 5 7 5 4 5 4 3 2 3 1 1 0 -0 -1 -2 -2 -2 -3 -3 -3 -3 -4 -5 -5 -5 -5 -4 -4 -3 -3 -2 -2 -2 -2 -1 -0
10 8 8 9 9 9 6 5 6 7 6 4 3 3 3 4 3 1 0 -0 -0 -2 -2 -3 -4 -3 -4 -4 -3 -4 -5 -5 -6 -6 -5 -5 -4 -4 -3 -3 -3 -3 -3 -3
8 8 7 8 8 7 4 4 6 8 5 4 3 2 1 1 0 -0 -1 -2 -2 -3 -3 -4 -5 -4 -5 -5 -4 -3 -4 -5 -5 -5 -5 -5 -5 -5 -4 -4 -3 -3 -3 -3
7 7 6 7 7 6 3 5 6 4 4 3 3 2 1 1 -1 -2 -3 -4 -3 -4 -4 -4 -5 -5 -6 -6 -5 -4 -4 -4 -5 -5 -6 -6 -5 -5 -5 -5 -4 -4 -4 -4
7 6 6 5 4 3 3 3 3 3 2 3 3 3 2 0 -2 -4 -5 -5 -4 -5 -5 -5 -5 -6 -6 -6 -6 -5 -5 -4 -4 -5 -6 -6 -6 -6 -6 -6 -5 -5 -5 -5
6 6 4 4 4 3 3 2 2 3 1 1 3 3 2 -1 -2 -4 -4 -4 -5 -6 -6 -6 -6 -7 -7 -7 -7 -7 -6 -5 -5 -5 -5 -6 -7 -7 -7 -6 -6 -6 -6 -6
5 5 5 4 3 3 2 1 2 2 1 -0 -0 -1 -1 -2 -3 -4 -4 -5 -6 -6 -7 -7 -8 -8 -8 -8 -7 -7 -6 -6 -5 -5 -6 -6 -6 -7 -7 -7 -6 -6 -6 -5
4 4 4 2 3 3 1 1 1 0 -0 -1 -2 -3 -3 -3 -4 -5 -5 -6 -7 -7 -8 -8 -9 -9 -9 -8 -8 -7 -6 -6 -6 -6 -6 -6 -6 -6 -7 -7 -7 -7 -7 -7

GFSCGP_925_temp_114.txt.gz
Temp
11 9 8 8 9 11 10 10 9 10 12 11 12 11 12 12 13 14 14 15 16 17 19 15 15 17 20 20 20 19 18 18 17 17 17 17 17 17 18 19 18 18 18 18
9 8 10 11 10 9 9 9 9 11 12 11 11 11 12 13 13 13 14 15 16 15 15 12 10 9 10 12 18 19 18 18 17 17 17 17 17 17 16 17 18 18 18 18
8 10 11 11 10 10 10 9 10 10 11 11 10 10 11 13 14 14 15 16 13 13 10 10 9 7 7 8 10 15 18 18 17 17 17 17 17 16 16 16 17 18 18 17
9 10 10 10 9 10 8 11 11 10 10 8 11 8 11 12 13 14 10 8 7 7 7 7 7 6 5 6 8 10 15 17 17 17 17 17 17 17 17 16 16 16 17 17
10 10 10 9 10 11 10 11 11 11 10 10 10 9 9 14 14 10 8 7 6 5 5 5 5 6 5 5 6 8 11 14 15 17 17 17 17 17 17 16 16 16 16 16
9 10 10 10 11 11 11 10 10 10 9 8 11 10 11 11 11 9 8 7 7 6 5 5 5 5 4 4 5 6 8 10 12 14 16 16 17 17 16 16 16 16 16 16
10 10 10 11 10 11 10 10 8 9 10 10 12 9 9 9 9 8 7 7 6 6 5 5 5 5 5 4 4 4 5 6 9 10 11 13 15 16 17 16 16 15 15 15
9 9 11 11 11 12 10 11 10 10 10 12 12 11 9 7 6 6 6 6 6 5 5 5 4 4 4 3 3 3 4 5 6 8 9 10 13 14 15 16 16 16 15 15
9 9 12 12 13 12 12 10 12 10 11 11 12 9 8 8 6 5 5 5 5 4 4 4 4 3 3 3 2 2 3 4 4 5 7 9 10 12 14 15 16 16 16 16
8 10 11 12 13 12 12 12 11 10 11 11 12 10 9 7 6 5 4 4 4 4 3 3 3 3 2 2 2 2 2 3 3 4 5 6 8 11 13 14 15 16 16 15
10 9 11 11 12 11 11 11 11 11 11 11 11 9 7 6 5 5 4 3 3 3 2 2 2 1 2 1 1 1 1 1 2 3 4 5 6 9 11 13 15 15 16 15
9 9 9 11 13 12 11 11 12 11 11 11 10 8 6 6 5 5 3 2 2 2 2 1 1 1 1 1 1 0 0 0 1 1 2 3 4 6 8 11 12 15 16 15
8 10 10 11 12 12 11 12 13 12 11 10 10 8 6 6 5 4 3 2 1 1 1 1 1 1 1 0 -0 -0 -0 -0 0 0 1 1 2 3 4 7 9 12 14 14
10 10 10 9 9 8 9 10 11 11 10 9 8 7 6 5 4 4 3 2 2 1 1 1 0 0 -0 -1 -1 -1 -1 -1 -1 -0 -0 0 1 1 2 3 6 9 11 12
9 9 8 8 8 8 7 8 9 9 9 8 6 6 5 4 3 3 2 2 1 1 1 0 0 -0 -1 -1 -2 -2 -2 -2 -2 -1 -1 -1 -0 -0 0 1 2 5 7 8
8 8 8 9 9 9 7 6 7 8 8 6 6 5 4 3 2 2 2 1 0 -0 -0 -0 -1 -1 -1 -2 -3 -3 -3 -3 -2 -2 -2 -2 -1 -1 -1 -1 0 1 4 4
7 9 9 10 10 10 8 6 6 6 6 7 7 5 3 2 2 1 1 0 -1 -1 -1 -1 -2 -2 -2 -3 -4 -4 -4 -4 -4 -3 -3 -3 -2 -2 -2 -2 -1 -1 -0 1
7 8 9 10 9 9 6 6 7 6 5 5 5 3 3 1 1 1 0 -1 -1 -2 -2 -3 -3 -3 -4 -3 -4 -5 -5 -5 -5 -5 -5 -4 -3 -3 -3 -2 -2 -2 -2 -2
8 8 9 10 9 8 7 5 5 6 5 4 5 4 3 2 2 -0 -0 -1 -2 -3 -3 -4 -4 -4 -5 -4 -4 -5 -5 -6 -6 -6 -6 -6 -5 -4 -3 -3 -3 -3 -3 -3
8 8 8 9 9 8 5 5 5 6 6 3 3 2 3 3 3 -0 -2 -3 -3 -4 -4 -5 -5 -5 -5 -5 -4 -4 -5 -6 -6 -7 -6 -6 -6 -5 -5 -4 -3 -4 -3 -3
8 7 7 8 8 6 4 4 5 7 4 3 2 1 0 0 -0 -2 -3 -4 -4 -4 -5 -5 -6 -6 -6 -6 -4 -4 -4 -5 -6 -6 -6 -5 -5 -5 -5 -4 -4 -4 -4 -4
6 7 6 7 7 7 3 5 6 4 3 2 2 1 0 -2 -3 -4 -5 -6 -5 -6 -6 -6 -6 -6 -7 -7 -6 -5 -5 -5 -5 -6 -6 -6 -6 -6 -5 -5 -4 -4 -4 -4
6 5 6 5 4 3 3 3 2 2 3 2 2 1 -1 -2 -5 -6 -7 -7 -6 -6 -7 -7 -7 -7 -8 -8 -8 -7 -7 -6 -5 -6 -6 -6 -6 -6 -6 -6 -6 -5 -5 -5
5 6 4 4 3 3 2 2 2 1 0 1 2 1 -1 -3 -4 -5 -5 -6 -6 -7 -7 -8 -8 -8 -8 -8 -8 -8 -8 -6 -6 -6 -6 -6 -7 -7 -7 -7 -6 -6 -5 -5
5 5 4 3 3 2 1 1 1 0 -0 -1 -2 -1 -2 -3 -4 -5 -5 -6 -7 -7 -8 -8 -8 -9 -9 -9 -8 -7 -7 -7 -6 -6 -6 -6 -6 -7 -7 -7 -7 -7 -7 -6
4 4 5 4 3 2 1 1 1 -0 -1 -2 -3 -4 -4 -4 -5 -6 -6 -7 -8 -8 -9 -9 -9 -10 -10 -9 -9 -8 -7 -7 -7 -7 -7 -7 -7 -7 -7 -7 -7 -8 -8 -8

GFSCGP_925_temp_120.txt.gz
Temp
16 17 19 18 17 16 16 16 17 18 19 17 17 18 19 20 19 19 19 19 20 20 21 20 19 20 20 20 19 20 22 23 21 20 20 21 21 20 20 21 20 18 17 17
16 18 18 16 16 15 16 16 17 18 18 17 18 18 20 20 19 16 15 16 16 16 18 19 19 19 17 16 15 18 22 23 22 21 21 21 21 20 20 20 20 19 16 17
16 18 15 15 16 15 16 16 17 17 17 18 18 19 20 18 16 14 13 11 11 12 13 14 15 15 13 14 14 15 19 23 22 21 21 21 20 21 20 20 20 18 17 17
16 16 15 15 15 16 15 17 16 16 16 16 18 16 19 16 15 12 11 8 6 6 7 9 9 9 9 9 9 12 15 16 21 19 20 21 21 20 19 20 19 17 17 18
17 16 15 15 16 16 16 17 16 16 16 16 18 16 19 14 11 10 9 7 5 5 5 6 6 6 6 5 6 9 10 12 16 18 19 19 21 21 20 20 19 17 16 17
15 16 14 16 16 15 16 15 17 17 16 16 17 14 17 10 7 8 6 6 4 3 4 4 5 5 4 4 4 7 9 8 11 13 16 18 18 20 20 19 18 17 16 16
16 16 16 15 16 17 15 16 17 16 16 19 18 15 10 7 7 6 5 4 4 3 2 3 3 4 4 3 3 5 7 7 8 9 10 13 16 17 18 19 18 17 16 16
15 16 16 15 16 15 16 16 15 13 16 17 17 15 10 9 8 6 5 3 3 3 2 2 1 3 3 3 3 3 4 5 6 7 9 9 10 12 14 16 17 18 17 16
13 13 16 15 16 16 16 15 16 13 15 13 15 11 8 11 8 6 4 3 2 2 1 1 1 2 2 2 2 2 3 3 4 5 7 7 8 9 10 12 14 15 16 16
12 10 15 15 16 17 16 16 14 13 13 15 14 11 9 7 6 5 3 2 2 2 1 0 1 0 1 1 1 1 2 2 3 4 4 5 6 6 8 9 11 12 14 15
13 9 15 15 16 16 16 14 14 13 15 14 15 11 7 6 4 4 3 2 1 1 0 -0 -0 -1 -0 -0 0 0 1 1 2 2 2 3 4 4 5 6 7 9 11 13
12 11 12 15 16 15 16 15 12 13 14 14 13 9 6 6 4 3 2 2 1 1 -0 -1 -1 -1 -1 -1 -1 -1 -0 1 1 1 1 1 1 2 3 3 4 6 8 11
12 12 13 16 15 15 13 12 12 11 11 12 13 9 7 6 4 3 2 1 1 0 0 -1 -1 -1 -2 -2 -2 -1 -1 1 1 1 1 1 1 1 1 1 2 3 4 7
11 12 11 13 11 10 10 10 11 11 12 10 10 7 6 5 4 3 2 1 1 0 -0 -0 -1 -1 -2 -2 -2 -2 -1 -0 1 1 1 0 -0 0 0 0 1 1 2 3
12 10 11 11 9 10 9 8 9 9 10 10 8 6 5 4 3 2 1 1 1 0 -0 -1 -1 -1 -2 -2 -3 -2 -1 -1 -1 -0 0 1 -0 -0 -0 -0 -0 -0 -0 0
11 10 9 10 10 10 9 7 9 9 8 7 8 5 4 3 2 1 1 1 1 1 -0 -1 -1 -2 -2 -2 -2 -3 -2 -2 -1 -1 -1 -0 0 -1 -1 -1 -1 -1 -1 -1
10 9 10 13 10 12 11 7 7 8 8 9 9 6 4 3 2 1 1 1 1 0 -0 -2 -2 -3 -3 -2 -2 -3 -3 -3 -3 -2 -2 -1 -1 -1 -1 -2 -2 -2 -2 -2
9 9 9 13 11 12 7 8 9 8 7 8 7 5 5 3 1 0 0 -0 -0 -1 -1 -2 -3 -3 -3 -3 -2 -2 -3 -3 -4 -4 -4 -3 -2 -2 -2 -2 -2 -2 -2 -2
11 9 11 11 12 8 7 7 8 8 6 6 6 5 4 3 4 0 -1 -0 -1 -1 -1 -1 -2 -3 -3 -3 -3 -3 -3 -4 -4 -4 -5 -4 -4 -3 -3 -3 -3 -2 -2 -3
10 10 10 11 11 11 8 6 6 7 8 6 6 5 6 4 6 2 -1 -2 -1 -1 -1 -2 -2 -2 -2 -2 -3 -3 -4 -4 -4 -4 -5 -5 -5 -4 -4 -4 -3 -3 -3 -3
10 10 10 11 11 8 6 5 5 8 7 6 6 6 6 5 3 -1 -1 -2 -2 -1 -2 -1 -1 -2 -2 -2 -2 -3 -3 -3 -3 -4 -4 -4 -5 -5 -4 -4 -4 -4 -3 -3
11 10 10 10 10 9 5 5 7 5 6 6 6 5 3 1 -1 -2 -3 -3 -2 -1 -2 -2 -1 -2 -3 -3 -2 -3 -3 -2 -2 -2 -3 -3 -4 -4 -4 -4 -4 -3 -3 -3
9 10 9 7 7 4 3 3 4 6 5 5 5 4 3 1 -2 -3 -3 -3 -2 -2 -2 -2 -2 -2 -3 -3 -3 -3 -4 -2 -2 -2 -2 -2 -3 -3 -3 -3 -4 -3 -3 -3
8 8 7 6 4 4 3 2 3 5 4 4 4 3 3 0 -1 -2 -1 -2 -2 -2 -2 -2 -2 -3 -3 -4 -4 -4 -4 -3 -2 -2 -2 -2 -2 -2 -3 -3 -4 -5 -5 -5
8 8 7 4 3 3 2 2 2 2 3 2 3 2 2 1 1 0 -0 -1 -2 -3 -3 -3 -4 -4 -4 -5 -5 -6 -5 -4 -3 -3 -3 -3 -3 -3 -3 -3 -6 -6 -7 -8
7 7 7 7 4 4 3 1 1 2 2 2 1 1 0 0 -0 -1 -2 -3 -3 -3 -4 -4 -5 -5 -6 -6 -7 -7 -7 -6 -5 -4 -4 -4 -4 -4 -4 -4 -4 -6 -8 -10

GFSCGP_925_temp_123.txt.gz
Temp
20 20 22 23 21 21 20 20 21 22 23 21 21 22 23 24 21 19 18 18 17 16 16 15 17 18 20 21 21 21 21 22 22 22 20 20 22 21 21 23 23 19 18 18
20 20 23 20 20 19 20 20 21 22 22 21 21 22 23 23 20 18 17 16 14 12 12 12 12 13 17 16 17 19 19 18 19 22 20 20 22 22 22 23 23 22 18 17
20 22 19 19 20 20 21 20 21 20 21 21 22 22 23 23 21 17 16 14 13 10 8 8 8 8 10 11 11 14 15 17 18 20 23 21 22 23 23 24 23 22 19 17
20 21 19 19 19 20 19 21 20 20 19 19 21 19 23 20 17 15 14 12 10 9 8 6 5 5 6 7 7 8 10 14 16 15 17 21 22 24 24 24 23 22 21 17
21 19 19 19 20 19 19 19 19 19 19 19 21 20 22 17 13 12 11 9 8 7 7 5 4 3 4 4 4 5 7 10 11 11 14 22 21 24 24 24 23 23 21 19
19 21 19 19 19 19 19 18 20 21 21 19 21 20 20 11 9 9 8 7 7 6 5 6 4 2 2 3 3 3 6 8 8 10 16 22 21 23 24 23 23 22 19 19
20 20 20 18 18 20 19 19 18 19 18 19 21 20 12 13 11 9 7 5 6 5 4 3 2 1 1 2 2 3 5 6 7 9 11 13 18 21 22 21 21 20 18 18
19 18 19 19 19 19 18 19 18 15 17 18 20 18 11 13 12 9 8 5 5 4 3 1 0 0 -0 0 1 2 4 5 6 7 8 9 11 14 14 15 14 17 17 17
17 17 20 19 19 19 19 18 19 16 18 17 18 13 12 12 10 7 5 5 3 3 2 0 -0 -0 -1 -0 -0 1 3 4 4 5 6 7 8 10 12 12 14 14 14 16
16 13 18 19 18 19 18 20 16 15 14 16 18 12 11 8 6 5 4 3 2 2 1 0 -0 -1 -1 -1 -0 1 2 2 3 3 5 5 6 6 8 10 10 10 12 14
16 11 17 18 18 19 18 17 16 16 17 15 15 12 8 6 5 4 3 2 2 1 1 -0 -1 -1 -1 -1 -1 0 2 2 2 2 2 3 3 4 5 5 6 7 9 11
16 14 14 18 19 18 18 17 16 13 15 13 14 10 7 7 6 4 3 2 1 1 0 -0 -1 -1 -2 -2 -1 -0 -0 1 1 2 2 2 2 2 2 2 3 4 5 6
14 14 15 17 17 17 16 16 14 13 13 12 13 10 8 8 6 4 3 2 1 1 0 -0 -1 -1 -1 -2 -2 -1 -0 0 0 1 2 1 1 1 1 1 1 2 2 3
12 14 14 16 15 14 12 13 13 12 11 13 11 8 7 6 5 4 3 2 1 1 -0 -0 -1 -1 -1 -2 -2 -1 -1 -0 0 1 2 1 0 0 1 0 0 0 0 1
13 11 12 14 14 13 11 9 11 11 12 12 9 8 6 5 4 3 3 4 3 1 1 -0 -1 -1 -2 -1 -2 -1 -1 -1 0 0 1 1 1 1 -0 -0 -1 -1 -1 -1
13 10 10 10 13 12 10 9 11 11 10 9 10 7 6 5 5 3 4 4 3 2 1 -0 -1 -1 -2 -1 -1 -1 -1 -2 -1 -1 -0 1 1 1 -0 -1 -1 -1 -2 -2
12 11 10 14 14 13 11 8 9 10 12 11 11 8 7 6 5 2 3 3 2 2 1 -1 -1 -2 -2 -2 -1 -2 -1 -2 -3 -2 -2 -1 -0 -0 -0 -0 -1 -1 -2 -2
11 10 12 14 13 12 8 12 12 11 11 11 9 7 8 6 4 3 2 2 1 1 1 1 -1 -2 -2 -2 -2 -2 -2 -2 -3 -3 -3 -3 -2 -2 -2 -2 -2 -2 -2 -2
14 11 12 13 15 9 9 10 11 11 9 9 9 8 7 5 5 2 1 1 2 2 2 2 1 1 0 -1 -1 -2 -2 -2 -3 -3 -4 -4 -3 -3 -3 -3 -2 -2 -2 -2
13 12 10 13 13 13 9 9 10 11 10 9 9 8 7 6 6 4 1 -0 1 2 2 2 2 1 1 1 -0 -1 -1 -2 -2 -2 -3 -4 -4 -3 -3 -3 -3 -3 -2 -3
11 11 11 12 13 10 8 8 7 9 8 8 9 9 8 6 3 1 1 -1 1 2 2 2 2 1 1 1 1 -0 0 0 -0 -1 -1 -2 -3 -3 -3 -3 -3 -3 -2 -2
13 13 12 12 12 11 7 6 7 7 7 7 7 6 4 2 1 -1 -1 -1 1 3 2 2 1 0 -0 -0 0 -0 0 1 1 1 0 -0 -0 -1 -2 -2 -3 -3 -3 -3
12 13 12 10 8 6 4 5 6 6 6 6 6 6 4 2 -1 -1 -2 -1 1 2 2 1 1 0 -1 -1 -1 -1 -1 0 1 1 0 0 -0 0 -0 -1 -2 -3 -4 -4
10 11 8 8 6 5 4 4 4 4 4 6 6 5 4 2 1 1 1 2 2 2 1 1 0 -0 -1 -2 -3 -3 -2 -1 -0 0 -0 -1 -0 -1 -1 -2 -2 -4 -5 -5
10 10 8 6 5 5 3 3 3 2 4 5 5 5 4 4 4 3 3 2 1 1 0 -0 -1 -1 -2 -3 -4 -4 -4 -3 -2 -2 -2 -2 -1 -2 -2 -2 -4 -4 -7 -8
10 9 8 8 6 5 4 2 2 2 2 4 3 3 3 3 3 2 1 1 0 -0 -1 -1 -2 -3 -4 -5 -6 -7 -6 -5 -5 -3 -3 -3 -3 -3 -3 -3 -3 -5 -6 -8

GFSCGP_925_temp_126.txt.gz
Temp
21 20 21 23 24 23 22 21 21 23 24 23 22 22 23 25 22 20 18 17 16 15 14 12 11 9 9 9 10 11 12 13 19 21 21 21 19 20 20 20 20 19 19 20
21 20 22 24 22 21 21 21 21 23 24 23 22 22 23 24 20 18 16 15 14 12 12 11 9 7 7 7 7 8 9 10 11 14 18 20 19 19 20 20 21 20 19 19
21 22 23 21 21 21 21 21 22 21 22 22 22 22 24 20 18 16 15 13 11 10 9 9 8 7 6 5 5 6 6 7 8 10 13 16 17 18 19 20 21 21 18 18
21 23 22 22 21 21 20 22 22 21 20 19 22 18 21 21 17 14 12 10 9 8 8 7 7 6 5 4 4 4 5 5 6 8 10 13 12 13 19 20 22 22 19 18
20 21 20 20 21 22 20 21 20 20 19 19 20 21 16 18 13 12 10 9 7 7 6 6 5 3 3 3 3 2 3 4 5 6 9 9 10 12 14 20 22 23 18 18
20 22 21 20 21 21 20 19 20 20 21 19 21 18 12 11 11 10 9 7 6 6 5 4 3 2 1 1 1 0 1 3 5 6 7 9 11 12 14 20 23 23 20 17
20 20 21 21 19 20 20 19 18 18 19 19 21 20 13 13 11 9 7 5 5 5 4 3 1 0 0 -0 -0 -0 0 2 4 5 7 9 11 13 16 19 23 23 21 18
19 19 21 21 19 20 20 19 17 16 16 18 20 18 11 13 10 8 7 5 4 4 3 2 -0 -0 -1 -1 -1 -1 -0 2 3 5 7 8 10 11 13 15 14 19 19 19
17 19 21 21 20 20 19 19 20 17 18 16 18 13 13 11 9 7 5 4 3 3 2 1 -0 -1 -1 -1 -2 -1 -1 1 3 4 5 6 7 9 9 11 14 11 14 15
17 14 19 20 20 20 19 20 17 17 14 16 19 14 12 7 6 5 4 3 2 2 1 1 -0 -1 -1 -2 -2 -1 -0 1 1 3 3 4 4 5 6 9 11 10 11 14
17 12 17 19 18 19 18 18 17 17 16 15 15 12 8 6 5 5 3 3 2 1 0 0 -0 -1 -1 -1 -1 -1 -0 0 1 1 2 2 2 2 3 5 5 8 9 9
16 15 13 17 21 20 19 19 17 14 15 14 12 11 8 7 6 5 3 3 2 1 0 -0 -1 -1 -1 -1 -1 -1 -1 0 -0 1 1 1 1 1 1 2 3 3 5 8
15 13 14 17 18 18 18 17 16 15 14 12 12 11 9 8 6 5 3 3 2 1 0 -0 -1 -1 -1 -1 -1 -1 -1 -0 0 1 1 0 -0 0 0 0 1 2 2 3
12 13 13 13 12 14 14 14 14 13 11 12 12 8 8 6 5 4 4 4 3 1 0 -1 -1 -2 -2 -1 -2 -1 -2 -2 -1 0 0 0 -0 -1 -0 -1 -1 -0 0 0
13 11 13 13 13 14 13 11 12 12 12 11 10 8 6 5 4 4 5 5 4 3 2 0 -1 -1 -1 -1 -2 -2 -2 -2 -1 -1 -1 -0 -0 -0 -1 -1 -1 -1 -1 -1
13 11 9 10 13 14 13 9 9 12 11 10 10 7 6 6 5 4 4 4 4 3 2 1 0 -0 -1 -1 -1 -1 -1 -2 -2 -2 -1 -1 -1 -1 -1 -1 -1 -2 -2 -2
13 12 11 12 15 14 12 10 9 12 13 12 11 9 8 7 4 3 3 3 3 2 3 0 -0 -0 -1 -1 -1 -1 -1 -2 -2 -2 -2 -2 -2 -2 -1 -1 -2 -2 -2 -2
13 11 10 13 13 12 9 12 13 13 13 12 10 9 9 6 4 3 3 2 2 2 3 2 0 0 -0 -1 -0 -1 -1 -1 -2 -3 -3 -2 -2 -2 -2 -2 -2 -2 -2 -3
14 12 10 11 14 10 11 12 13 12 11 11 10 9 8 6 4 1 2 2 3 3 3 3 2 2 1 0 0 0 -1 -1 -1 -2 -3 -3 -3 -3 -2 -2 -2 -2 -2 -2
14 13 11 12 12 13 10 12 12 12 10 11 10 9 8 7 6 2 1 1 3 4 3 3 2 2 2 1 1 1 1 -0 -0 -1 -1 -1 -2 -3 -3 -3 -3 -3 -3 -3
11 10 10 11 12 11 9 9 9 9 8 10 10 9 9 7 3 2 2 1 3 3 3 3 2 1 1 1 1 0 1 1 1 1 0 -0 -1 -1 -2 -3 -4 -4 -3 -3
12 11 11 12 12 11 8 7 7 8 9 9 8 6 3 2 1 -0 -1 -1 3 4 3 2 1 0 -0 -1 -1 -1 -0 1 1 0 0 -0 -0 -1 -2 -3 -4 -5 -5 -4
11 13 10 8 8 6 4 6 7 8 6 6 5 4 3 2 0 -1 -1 -0 3 3 3 2 1 -0 -1 -2 -2 -2 -2 -1 0 -0 -1 -1 -1 -1 -2 -2 -4 -6 -6 -6
12 12 9 8 6 5 4 4 4 5 4 4 4 4 2 1 0 0 1 3 3 2 2 1 0 -0 -2 -3 -4 -4 -4 -3 -2 -2 -2 -2 -2 -2 -2 -3 -4 -6 -7 -7
12 11 9 6 5 5 4 3 3 3 3 3 4 5 4 3 3 4 4 3 2 2 1 -0 -1 -2 -3 -4 -5 -6 -6 -5 -4 -3 -3 -3 -3 -3 -3 -3 -5 -6 -7 -7
11 10 9 8 6 7 4 2 2 2 1 2 3 4 4 4 4 3 2 1 1 0 -0 -1 -2 -3 -4 -6 -7 -8 -8 -7 -6 -5 -4 -4 -4 -4 -4 -4 -4 -5 -6 -7